COSMOS 875

Satellite information

Favourite Embed

Satellite Type and Status

PAYLOADIN ORBIT

Key statistics

Satellite COSMOS 875 at a glance.

Uptime

17686

Days in orbit

Revolutions

≈ 12.5

Per day

Orbit

LEO

Low Earth Orbit

Inclination

74.0

Latest

Satellite identification and parameters

Extended collection of information and parameters for COSMOS 875.

Object identification

Identified? True

Debris? False

Object name: COSMOS 875

International designator: 1976-118E

Object number (NORAD): 9592

Object ID (CCSDS): 9592

Country: COMMONWEALTH OF INDEPENDENT STATES (CIS)

Current information (Y/N): Y

RCS size: MEDIUM

Orbital parameters

Period: 114.877 minutes

Inclination: 74.0328 deg

SMA: 7827.979 km

Apoapsis: 1463.649 km

Periapsis: 1436.039 km

RAAN: 351.8332 deg

Eccentricy: 0.0017635

Argument of periapsis: 342.4057 deg

Mean anomaly: 91.0741 deg

Mean motion: 12.53511388 rev/day

Mean motion (dot): 0.00000013 rev/day2

B* drag term: 0.0001798 1/REarth

Two-line elements (TLE)

Creation date: May 10, 2025, 2:32 a.m.

Reference frame: TEME

Reference center: EARTH

Epoch: May 9, 2025, 7:10 p.m. UTC

TLE line 0: 0 COSMOS 875

TLE line 1: 1 09592U 76118E 25129.79900831 .00000013 00000-0 17980-3 0 9996

TLE line 2: 2 09592 74.0328 351.8332 0017635 342.4057 91.0741 12.53511388215550

Live tracking on map

Real-time ground track for satellite COSMOS 875.

In-orbit conjunctions

A list of the most updated potential collisions computed for object COSMOS 875.

Target Orbit TCA Probability of collision Miss distance Type
DELTA 1 DEB SSO 2025-01-14 05:07:34 0.0001457031 394.0 (m) DEBRIS

Associated space launch

Military communications satellites

COSMOS 875 was lifted into orbit during the mission ‘Kosmos-3M | Strela-1M 121-128’, on board a Kosmos-3M space rocket.

The launch took place on Dec. 7, 1976, 10:23 a.m. from 132/1 (132L).

For more information about the launch, click the button.

Launch to space Kosmos-3M | Strela-1M 121-128
Kosmos-3M | Strela-1M 121-128

Agency: N/A

Status: Launch Successful

Launch date: Dec. 7, 1976, 10:23 a.m. UTC

Rocket: Kosmos-3M

Launch pad: 132/1 (132L)

Location: Plesetsk Cosmodrome, Russian Federation

...

Latest news about this satellite

There are no fresh news available about this satellite. Check back as we update our databases every day.


Newsletter sign-up

Weekly statistics, charts and insights to help you stay on top of the space industry.